User: anonymous   Login
Location: Unspecified
(48.5670°N, 0.0000°E)
Time: 17:58:58
(UTC+00:00)
Language:

Courier 1B Rocket - Orbit

View from above orbital plane
View from above orbital plane
View from above satellite
View from above satellite

Ground track
Ground track

The orbit data is extracted from the following two-line orbital elements,

1    59U 60013B   19195.87411054 +.00000085 +00000-0 -39870-5 0  9995
2    59 028.2479 157.3992 0189073 324.4062 034.4003 13.52968891900716
Epoch (UTC): 14 July 2019 20:58:43
Eccentricity: 0.0189073
inclination: 28.2479°
perigee height: 920 km
apogee height: 1202 km
right ascension of ascending node: 157.3992°
argument of perigee: 324.4062°
revolutions per day: 13.52968891
mean anomaly at epoch: 34.4003°
orbit number at epoch: 90071

The dashed part of the orbit path shows where the satellite is in the earth's shadow,  

DLR